Tracking 25701 objects as of 4-Jul-2022
HD Live streaming from Space Station
objects crossing your sky now

ATLAS 5 CENTAUR DEB

Track ATLAS 5 CENTAUR DEB now!


NORAD ID: 43949
Int'l Code: 2014-055C
Perigee: 7,014.5 km
Apogee: 34,225.2 km
Inclination: 21.0 °
Period: 735.5 minutes
Semi major axis: 26990 km
RCS: Unknown
Launch date: September 17, 2014
Source: United States (US)
Launch site: AIR FORCE EASTERN TEST RANGE (AFETR)

Note: This is SATELLITE DEBRIS
aabbcc
Your satellite tracking list
Your tracking list is empty




NASA's NSSDC Master Catalog

Two Line Element Set (TLE):
1 43949U 14055C   22178.48931283  .00000076  00000-0  00000-0 0  9995
2 43949  21.0339 251.5091 5040728 336.9609   6.8643  1.95784080  5312
Source of the keplerian elements: AFSPC